When you browse on this site, cookies collect data to enhance your experience and personalize the content and advertising you see.
Visit our Privacy Policy to learn more. By continuing to use the site, you agree to this use of cookies and data.
  • In United Kingdom
  • List of Countries
  • For 7 days
  • Water Temperature
  • Satellite Maps
  • Weather Map
  • Weather Widgets
  • user-avatar
    Login

    Hourly Weather Lourdes

    Today, 15 December, Saturday

    Time Temperature Precipitation Wind Pressure Humidity
    00:00 +3°C° 0 mm 2 mps 699 mmHg 82%
    01:00 +3°C° 0 mm 2 mps 699 mmHg 80%
    02:00 +3°C° 0 mm 2 mps 698 mmHg 77%
    03:00 +3°C° 0 mm 2 mps 698 mmHg 74%
    04:00 +4°C° 0 mm 2 mps 698 mmHg 73%
    05:00 +4°C° 0 mm 2 mps 698 mmHg 71%
    06:00 +5°C° 0 mm 2 mps 698 mmHg 69%
    07:00 +6°C° 0 mm 2 mps 698 mmHg 71%
    08:00 +8°C° 0 mm 1 mps 698 mmHg 72%
    09:00 +9°C° 0 mm 1 mps 698 mmHg 74%
    10:00 +10°C° 0.2 mm 1 mps 698 mmHg 74%
    11:00 +11°C° 0.2 mm 1 mps 698 mmHg 74%
    12:00 +13°C° 0.2 mm 1 mps 698 mmHg 74%
    13:00 +12°C° 1 mm 1 mps 698 mmHg 79%
    14:00 +11°C° 1 mm 1 mps 698 mmHg 84%
    15:00 +10°C° 1 mm 2 mps 697 mmHg 89%
    16:00 +10°C° 0 mm 2 mps 697 mmHg 88%
    17:00 +9°C° 0 mm 2 mps 697 mmHg 87%
    18:00 +9°C° 0 mm 2 mps 697 mmHg 86%
    19:00 +9°C° 0 mm 2 mps 697 mmHg 86%
    20:00 +9°C° 0 mm 2 mps 697 mmHg 85%
    21:00 +9°C° 0 mm 2 mps 697 mmHg 85%
    22:00 +8°C° 0.2 mm 2 mps 697 mmHg 86%
    23:00 +8°C° 0.2 mm 2 mps 697 mmHg 87%

    Tomorrow, 16 December, Sunday

    Time Temperature Precipitation Wind Pressure Humidity
    00:00 +8°C° 0.2 mm 2 mps 697 mmHg 89%
    01:00 +9°C° 0.3 mm 1 mps 697 mmHg 89%
    02:00 +9°C° 0.3 mm 1 mps 696 mmHg 89%
    03:00 +9°C° 0.3 mm 1 mps 696 mmHg 88%
    04:00 +9°C° 1.2 mm 1 mps 696 mmHg 90%
    05:00 +9°C° 1.2 mm 1 mps 696 mmHg 92%
    06:00 +9°C° 1.2 mm 1 mps 696 mmHg 93%
    07:00 +9°C° 1.2 mm 1 mps 696 mmHg 94%
    08:00 +9°C° 1.2 mm 1 mps 696 mmHg 94%
    09:00 +9°C° 1.2 mm 1 mps 696 mmHg 95%
    10:00 +9°C° 0.8 mm 1 mps 696 mmHg 93%
    11:00 +10°C° 0.8 mm 1 mps 695 mmHg 91%
    12:00 +10°C° 0.8 mm 1 mps 695 mmHg 89%
    13:00 +10°C° 0.5 mm 1 mps 695 mmHg 89%
    14:00 +10°C° 0.5 mm 1 mps 694 mmHg 89%
    15:00 +10°C° 0.5 mm 1 mps 694 mmHg 90%
    16:00 +9°C° 1.1 mm 1 mps 695 mmHg 91%
    17:00 +8°C° 1.1 mm 1 mps 695 mmHg 92%
    18:00 +6°C° 1.1 mm 2 mps 696 mmHg 94%
    19:00 +6°C° 0.8 mm 2 mps 696 mmHg 92%
    20:00 +5°C° 0.8 mm 3 mps 697 mmHg 90%
    21:00 +5°C° 0.8 mm 4 mps 698 mmHg 88%
    22:00 +4°C° 0.1 mm 4 mps 698 mmHg 88%
    23:00 +4°C° 0.1 mm 4 mps 699 mmHg 88%

    Day after tomorrow, 17 December, Monday

    Time Temperature Precipitation Wind Pressure Humidity
    00:00 +3°C° 0.1 mm 3 mps 699 mmHg 88%
    01:00 +3°C° 0.1 mm 3 mps 699 mmHg 87%
    02:00 +2°C° 0.1 mm 3 mps 700 mmHg 87%
    03:00 +2°C° 0.1 mm 3 mps 700 mmHg 87%
    04:00 +2°C° 0.1 mm 3 mps 700 mmHg 86%
    05:00 +2°C° 0.1 mm 3 mps 700 mmHg 85%
    06:00 +1°C° 0.1 mm 3 mps 701 mmHg 85%
    07:00 +3°C° 0 mm 2 mps 701 mmHg 82%
    08:00 +4°C° 0 mm 2 mps 702 mmHg 80%
    09:00 +4°C° 0 mm 2 mps 703 mmHg 78%
    10:00 +6°C° 0 mm 2 mps 703 mmHg 73%
    11:00 +7°C° 0 mm 2 mps 703 mmHg 68%
    12:00 +9°C° 0 mm 1 mps 703 mmHg 63%
    13:00 +9°C° 0 mm 1 mps 703 mmHg 65%
    14:00 +9°C° 0 mm 1 mps 703 mmHg 66%
    15:00 +8°C° 0 mm 0 mps 703 mmHg 67%
    16:00 +7°C° 0 mm 1 mps 703 mmHg 70%
    17:00 +6°C° 0 mm 1 mps 703 mmHg 73%
    18:00 +4°C° 0 mm 2 mps 703 mmHg 76%
    19:00 +4°C° 0 mm 2 mps 703 mmHg 76%
    20:00 +4°C° 0 mm 2 mps 703 mmHg 76%
    21:00 +4°C° 0 mm 2 mps 702 mmHg 75%
    22:00 +4°C° 0 mm 2 mps 702 mmHg 74%
    23:00 +3°C° 0 mm 3 mps 702 mmHg 74%

    18 December, Tuesday

    Time Temperature Precipitation Wind Pressure Humidity
    00:00 +3°C° 0 mm 3 mps 701 mmHg 73%
    01:00 +3°C° 0 mm 3 mps 701 mmHg 70%
    02:00 +3°C° 0 mm 3 mps 700 mmHg 67%
    03:00 +3°C° 0 mm 3 mps 700 mmHg 64%
    04:00 +3°C° 0 mm 3 mps 699 mmHg 62%
    05:00 +3°C° 0 mm 3 mps 699 mmHg 60%
    06:00 +3°C° 0 mm 3 mps 699 mmHg 58%
    07:00 +4°C° 0 mm 3 mps 699 mmHg 56%
    08:00 +4°C° 0 mm 3 mps 698 mmHg 53%
    09:00 +5°C° 0 mm 3 mps 698 mmHg 51%
    10:00 +8°C° 0 mm 3 mps 698 mmHg 49%
    11:00 +9°C° 0 mm 3 mps 698 mmHg 47%
    12:00 +11°C° 0 mm 4 mps 697 mmHg 45%
    13:00 +10°C° 0 mm 3 mps 697 mmHg 47%
    14:00 +10°C° 0 mm 3 mps 697 mmHg 49%
    15:00 +9°C° 0 mm 3 mps 696 mmHg 51%
    16:00 +9°C° 0 mm 3 mps 696 mmHg 53%
    17:00 +8°C° 0 mm 2 mps 696 mmHg 54%
    18:00 +7°C° 0 mm 2 mps 697 mmHg 55%
    19:00 +7°C° 0.2 mm 2 mps 697 mmHg 60%
    20:00 +7°C° 0.2 mm 2 mps 697 mmHg 65%
    21:00 +6°C° 0.2 mm 2 mps 697 mmHg 70%
    22:00 +7°C° 0.3 mm 1 mps 697 mmHg 74%
    23:00 +7°C° 0.3 mm 1 mps 698 mmHg 79%

    19 December, Wednesday

    Time Temperature Precipitation Wind Pressure Humidity
    00:00 +7°C° 0.3 mm 1 mps 698 mmHg 84%
    01:00 +6°C° 0.4 mm 1 mps 698 mmHg 87%
    02:00 +6°C° 0.4 mm 1 mps 697 mmHg 90%
    03:00 +5°C° 0.4 mm 1 mps 697 mmHg 93%
    04:00 +5°C° 0 mm 1 mps 698 mmHg 92%
    05:00 +5°C° 0 mm 1 mps 698 mmHg 92%
    06:00 +5°C° 0 mm 1 mps 698 mmHg 91%
    07:00 +5°C° 0 mm 1 mps 698 mmHg 88%
    08:00 +6°C° 0 mm 1 mps 699 mmHg 86%
    09:00 +6°C° 0 mm 1 mps 699 mmHg 83%
    10:00 +7°C° 0 mm 1 mps 699 mmHg 76%
    11:00 +7°C° 0 mm 2 mps 699 mmHg 68%
    12:00 +8°C° 0 mm 2 mps 699 mmHg 61%
    13:00 +8°C° 0 mm 2 mps 699 mmHg 63%
    14:00 +8°C° 0 mm 2 mps 699 mmHg 65%
    15:00 +8°C° 0 mm 2 mps 699 mmHg 67%
    16:00 +6°C° 0 mm 2 mps 699 mmHg 71%
    17:00 +5°C° 0 mm 2 mps 699 mmHg 75%
    18:00 +4°C° 0 mm 2 mps 699 mmHg 78%
    19:00 +4°C° 0 mm 2 mps 699 mmHg 79%
    20:00 +4°C° 0 mm 2 mps 700 mmHg 79%
    21:00 +4°C° 0 mm 2 mps 700 mmHg 79%
    22:00 +4°C° 0 mm 2 mps 700 mmHg 79%
    23:00 +3°C° 0 mm 2 mps 700 mmHg 79%

    20 December, Thursday

    Time Temperature Precipitation Wind Pressure Humidity
    00:00 +3°C° 0 mm 2 mps 701 mmHg 79%
    01:00 +3°C° 0 mm 2 mps 701 mmHg 79%
    02:00 +3°C° 0 mm 2 mps 701 mmHg 80%
    03:00 +3°C° 0 mm 2 mps 701 mmHg 81%
    04:00 +3°C° 0 mm 2 mps 701 mmHg 81%
    05:00 +2°C° 0 mm 2 mps 701 mmHg 81%
    06:00 +2°C° 0 mm 2 mps 701 mmHg 81%
    07:00 +3°C° 0 mm 2 mps 702 mmHg 78%
    08:00 +4°C° 0 mm 2 mps 702 mmHg 75%
    09:00 +4°C° 0 mm 2 mps 702 mmHg 71%
    10:00 +5°C° 0 mm 2 mps 702 mmHg 69%
    11:00 +6°C° 0 mm 2 mps 702 mmHg 67%
    12:00 +7°C° 0 mm 2 mps 703 mmHg 65%
    13:00 +7°C° 0 mm 2 mps 702 mmHg 68%
    14:00 +7°C° 0 mm 2 mps 702 mmHg 70%
    15:00 +7°C° 0 mm 2 mps 702 mmHg 72%
    16:00 +6°C° 0 mm 2 mps 702 mmHg 75%
    17:00 +5°C° 0 mm 2 mps 702 mmHg 78%
    18:00 +4°C° 0 mm 2 mps 702 mmHg 80%
    19:00 +4°C° 0 mm 2 mps 703 mmHg 76%
    20:00 +4°C° 0 mm 2 mps 703 mmHg 72%
    21:00 +4°C° 0 mm 2 mps 703 mmHg 68%
    22:00 +4°C° 0 mm 2 mps 703 mmHg 68%
    23:00 +4°C° 0 mm 2 mps 703 mmHg 69%
    Show more